Regional Weather Roundup
Issued by NWS Goodland, KS

Home | Current Version | Previous Version | Text Only | Print | Product List | Glossary On
Versions: 1 2 3 4 5 6 7 8 9 10 11 12 13 14 15 16 17 18 19 20 21 22 23 24 25 26 27 28 29 30 31 32 33 34 35 36 37 38 39 40 41 42 43 44 45 46 47 48 49 50
000
ASUS43 KGLD 272108
RWRGLD

GOODLAND FORECAST AREA HOURLY WEATHER ROUNDUP
NATIONAL WEATHER SERVICE GOODLAND KS
300 PM MDT WED AUG 27 2014

...OFFICIAL OBSERVATIONS...

CITY           SKY/WX    TMP DP  RH WIND       PRES   REMARKS
GOODLAND KS    PTSUNNY   77  65  66 S14       30.07F
HILL CITY KS   LGT RAIN  69  67  93 E13       30.06F FOG
IMPERIAL NEB   PTSUNNY   78  63  59 S10       30.04F
MCCOOK NEB     CLOUDY    80  66  62 E13       30.04F
AKRON CO       PTSUNNY   79  61  53 VRB6      30.08F
BURLINGTON CO  CLOUDY    77  64  64 S16G24    30.08F
LIMON CO       MOSUNNY   77  54  44 VRB3      30.12F
$$

...UNOFFICIAL OBSERVATIONS...

CITY           SKY/WX    TMP DP  RH WIND       PRES   REMARKS
COLBY KS       PTSUNNY   81  70  69 S9G18     30.06F
GOVE KS          N/A     81  32  17 CALM        N/A
NORTON KS      LGT RAIN  73  61  64 E12       30.05
SHARON SPRINGS   N/A     79  68  69 S10         N/A
WAKEENEY KS      N/A     74  69  86 MISG        N/A
KIT CARSON CO    N/A     78  61  56 MISG        N/A
YUMA CO          N/A     78  63  60 SE5         N/A
$$


USA.gov is the U.S. government's official web portal to all federal, state and local government web resources and services.